When you browse on this site, cookies collect data to enhance your experience and personalize the content and advertising you see.
Visit our Privacy Policy to learn more. By continuing to use the site, you agree to this use of cookies and data.
  • In Czech Republic
  • List of Countries
  • For 7 days
  • Water Temperature
  • Weather Map
  • Weather Widgets
  • user-avatar
    Login

    Hourly Weather Lezhe

    Today, 9 April, Thursday

    Time Temperature Precipitation Wind Pressure Humidity
    00:00 +8°C° 0 mm 3 mps 742 mmHg 57%
    01:00 +8°C° 0 mm 3 mps 741 mmHg 57%
    02:00 +8°C° 0 mm 3 mps 741 mmHg 58%
    03:00 +7°C° 0 mm 3 mps 741 mmHg 58%
    04:00 +7°C° 0 mm 3 mps 741 mmHg 59%
    05:00 +8°C° 0 mm 3 mps 741 mmHg 58%
    06:00 +9°C° 0 mm 3 mps 741 mmHg 57%
    07:00 +11°C° 0 mm 3 mps 741 mmHg 55%
    08:00 +13°C° 0 mm 3 mps 741 mmHg 49%
    09:00 +16°C° 0 mm 2 mps 741 mmHg 43%
    10:00 +18°C° 0 mm 2 mps 741 mmHg 37%
    11:00 +18°C° 0 mm 3 mps 740 mmHg 36%
    12:00 +19°C° 0 mm 3 mps 740 mmHg 35%
    13:00 +20°C° 0 mm 3 mps 740 mmHg 33%
    14:00 +20°C° 0 mm 3 mps 740 mmHg 35%
    15:00 +20°C° 0 mm 3 mps 739 mmHg 37%
    16:00 +19°C° 0 mm 3 mps 739 mmHg 39%
    17:00 +17°C° 0 mm 3 mps 739 mmHg 45%
    18:00 +14°C° 0 mm 3 mps 739 mmHg 51%
    19:00 +13°C° 0 mm 2 mps 739 mmHg 56%
    20:00 +13°C° 0 mm 2 mps 740 mmHg 57%
    21:00 +13°C° 0 mm 2 mps 740 mmHg 57%
    22:00 +12°C° 0 mm 2 mps 740 mmHg 57%
    23:00 +12°C° 0 mm 2 mps 740 mmHg 57%

    Tomorrow, 10 April, Friday

    Time Temperature Precipitation Wind Pressure Humidity
    00:00 +10°C° 0 mm 2 mps 740 mmHg 58%
    01:00 +10°C° 0 mm 2 mps 740 mmHg 58%
    02:00 +10°C° 0 mm 2 mps 740 mmHg 59%
    03:00 +9°C° 0 mm 2 mps 740 mmHg 59%
    04:00 +9°C° 0 mm 2 mps 740 mmHg 60%
    05:00 +10°C° 0 mm 2 mps 740 mmHg 59%
    06:00 +12°C° 0 mm 2 mps 740 mmHg 58%
    07:00 +13°C° 0 mm 2 mps 740 mmHg 57%
    08:00 +15°C° 0 mm 2 mps 740 mmHg 51%
    09:00 +17°C° 0 mm 2 mps 740 mmHg 45%
    10:00 +19°C° 0 mm 2 mps 740 mmHg 38%
    11:00 +20°C° 0 mm 2 mps 740 mmHg 37%
    12:00 +21°C° 0 mm 2 mps 740 mmHg 36%
    13:00 +21°C° 0 mm 3 mps 740 mmHg 35%
    14:00 +21°C° 0 mm 3 mps 739 mmHg 37%
    15:00 +21°C° 0 mm 3 mps 739 mmHg 38%
    16:00 +21°C° 0 mm 3 mps 739 mmHg 40%
    17:00 +19°C° 0 mm 2 mps 739 mmHg 46%
    18:00 +17°C° 0 mm 2 mps 739 mmHg 53%
    19:00 +15°C° 0 mm 2 mps 739 mmHg 59%
    20:00 +14°C° 0 mm 2 mps 740 mmHg 59%
    21:00 +14°C° 0 mm 2 mps 740 mmHg 60%
    22:00 +13°C° 0 mm 2 mps 740 mmHg 60%
    23:00 +13°C° 0 mm 2 mps 740 mmHg 61%

    Day after tomorrow, 11 April, Saturday

    Time Temperature Precipitation Wind Pressure Humidity
    00:00 +13°C° 0 mm 2 mps 740 mmHg 63%
    01:00 +12°C° 0 mm 2 mps 740 mmHg 64%
    02:00 +12°C° 0 mm 2 mps 740 mmHg 65%
    03:00 +12°C° 0 mm 2 mps 740 mmHg 66%
    04:00 +10°C° 0 mm 2 mps 740 mmHg 67%
    05:00 +12°C° 0 mm 2 mps 740 mmHg 65%
    06:00 +13°C° 0 mm 2 mps 740 mmHg 64%
    07:00 +14°C° 0 mm 2 mps 740 mmHg 62%
    08:00 +16°C° 0 mm 2 mps 741 mmHg 55%
    09:00 +18°C° 0 mm 2 mps 741 mmHg 48%
    10:00 +20°C° 0 mm 2 mps 741 mmHg 41%
    11:00 +21°C° 0 mm 2 mps 741 mmHg 39%
    12:00 +21°C° 0 mm 2 mps 740 mmHg 37%
    13:00 +23°C° 0 mm 2 mps 740 mmHg 35%
    14:00 +21°C° 0 mm 3 mps 740 mmHg 37%
    15:00 +21°C° 0 mm 3 mps 740 mmHg 39%
    16:00 +21°C° 0 mm 3 mps 740 mmHg 40%
    17:00 +19°C° 0 mm 3 mps 740 mmHg 47%
    18:00 +17°C° 0 mm 2 mps 740 mmHg 54%
    19:00 +15°C° 0 mm 2 mps 740 mmHg 60%
    20:00 +15°C° 0 mm 2 mps 740 mmHg 61%
    21:00 +14°C° 0 mm 2 mps 741 mmHg 62%
    22:00 +14°C° 0 mm 2 mps 741 mmHg 63%
    23:00 +13°C° 0 mm 2 mps 741 mmHg 64%

    12 April, Sunday

    Time Temperature Precipitation Wind Pressure Humidity
    00:00 +13°C° 0 mm 2 mps 741 mmHg 65%
    01:00 +12°C° 0 mm 2 mps 741 mmHg 66%
    02:00 +12°C° 0 mm 2 mps 741 mmHg 67%
    03:00 +12°C° 0 mm 2 mps 741 mmHg 67%
    04:00 +10°C° 0 mm 3 mps 741 mmHg 68%
    05:00 +12°C° 0 mm 2 mps 741 mmHg 67%
    06:00 +13°C° 0 mm 2 mps 741 mmHg 65%
    07:00 +14°C° 0 mm 2 mps 741 mmHg 63%
    08:00 +16°C° 0 mm 2 mps 741 mmHg 57%
    09:00 +18°C° 0 mm 2 mps 741 mmHg 52%
    10:00 +21°C° 0 mm 1 mps 741 mmHg 46%
    11:00 +20°C° 0 mm 2 mps 741 mmHg 45%
    12:00 +21°C° 0 mm 2 mps 741 mmHg 43%
    13:00 +21°C° 0 mm 2 mps 740 mmHg 42%
    14:00 +21°C° 0 mm 2 mps 740 mmHg 45%
    15:00 +20°C° 0 mm 2 mps 740 mmHg 49%
    16:00 +19°C° 0 mm 2 mps 739 mmHg 52%
    17:00 +19°C° 0 mm 1 mps 739 mmHg 59%
    18:00 +16°C° 0 mm 1 mps 739 mmHg 65%
    19:00 +14°C° 0 mm 1 mps 739 mmHg 72%
    20:00 +14°C° 0 mm 1 mps 739 mmHg 74%
    21:00 +13°C° 0 mm 1 mps 739 mmHg 76%
    22:00 +13°C° 0 mm 1 mps 739 mmHg 77%
    23:00 +13°C° 0 mm 1 mps 739 mmHg 78%

    13 April, Monday

    Time Temperature Precipitation Wind Pressure Humidity
    00:00 +12°C° 0 mm 1 mps 739 mmHg 79%
    01:00 +12°C° 0 mm 1 mps 739 mmHg 80%
    02:00 +12°C° 0 mm 1 mps 739 mmHg 81%
    03:00 +11°C° 0 mm 1 mps 739 mmHg 82%
    04:00 +11°C° 0 mm 1 mps 739 mmHg 83%
    05:00 +12°C° 0 mm 1 mps 739 mmHg 79%
    06:00 +14°C° 0 mm 1 mps 739 mmHg 74%
    07:00 +15°C° 0 mm 1 mps 739 mmHg 69%
    08:00 +16°C° 0 mm 1 mps 739 mmHg 66%
    09:00 +17°C° 0 mm 2 mps 739 mmHg 62%
    10:00 +18°C° 0 mm 2 mps 739 mmHg 58%
    11:00 +18°C° 0.1 mm 3 mps 739 mmHg 58%
    12:00 +18°C° 0.1 mm 3 mps 739 mmHg 57%
    13:00 +19°C° 0.1 mm 4 mps 738 mmHg 56%
    14:00 +18°C° 0 mm 4 mps 738 mmHg 57%
    15:00 +18°C° 0 mm 4 mps 738 mmHg 58%
    16:00 +17°C° 0 mm 4 mps 737 mmHg 59%
    17:00 +16°C° 0 mm 3 mps 737 mmHg 66%
    18:00 +14°C° 0 mm 2 mps 737 mmHg 73%
    19:00 +13°C° 0 mm 2 mps 737 mmHg 80%
    20:00 +12°C° 0 mm 2 mps 737 mmHg 81%
    21:00 +12°C° 0 mm 2 mps 738 mmHg 81%
    22:00 +12°C° 0 mm 2 mps 738 mmHg 81%
    23:00 +10°C° 0 mm 2 mps 737 mmHg 82%

    14 April, Tuesday

    Time Temperature Precipitation Wind Pressure Humidity
    00:00 +11°C° 0 mm 1 mps 737 mmHg 83%
    01:00 +11°C° 0 mm 1 mps 737 mmHg 83%
    02:00 +11°C° 0 mm 1 mps 737 mmHg 84%
    03:00 +10°C° 0 mm 1 mps 737 mmHg 85%
    04:00 +10°C° 0 mm 1 mps 737 mmHg 86%
    05:00 +11°C° 0 mm 1 mps 737 mmHg 83%
    06:00 +12°C° 0 mm 1 mps 737 mmHg 79%
    07:00 +13°C° 0 mm 1 mps 737 mmHg 76%
    08:00 +14°C° 0 mm 1 mps 737 mmHg 70%
    09:00 +15°C° 0 mm 2 mps 737 mmHg 63%
    10:00 +16°C° 0 mm 2 mps 737 mmHg 57%
    11:00 +16°C° 0 mm 2 mps 736 mmHg 58%
    12:00 +16°C° 0 mm 3 mps 736 mmHg 59%
    13:00 +16°C° 0 mm 3 mps 736 mmHg 60%
    14:00 +16°C° 0 mm 3 mps 736 mmHg 62%
    15:00 +16°C° 0 mm 3 mps 736 mmHg 64%
    16:00 +16°C° 0 mm 3 mps 736 mmHg 66%
    17:00 +15°C° 0 mm 2 mps 736 mmHg 75%
    18:00 +13°C° 0 mm 1 mps 736 mmHg 84%
    19:00 +12°C° 0 mm 1 mps 736 mmHg 92%
    20:00 +12°C° 0 mm 1 mps 737 mmHg 92%
    21:00 +11°C° 0 mm 1 mps 737 mmHg 92%
    22:00 +11°C° 0 mm 1 mps 738 mmHg 92%
    23:00 +11°C° 0 mm 1 mps 738 mmHg 90%
    Show more